Location: Borotín
(49.5055°N, 14.6142°E)
Time: 11:23:48
(UTC+00:00)

CZ-2C R/B - Pass Details

Date: 27 May 2022
Orbit: 667 x 784 km, 98.3° (Epoch: 26 June)

Event Time Altitude Azimuth Distance (km) Brightness Sun altitude
Rises 01:42:52 0° 23° (NNE) 3,270 7.5 -10.4°
Reaches altitude 10° 01:45:34 10° 35° (NE) 2,326 6.6 -10.1°
Maximum altitude 01:49:54 27° 93° (E) 1,438 4.4 -9.7°
Drops below altitude 10° 01:54:06 10° 150° (SSE) 2,259 4.7 -9.2°
Sets 01:56:40 0° 163° (SSE) 3,157 5.4 -9.0°
